EXPRESS-AT1

Last updated on Jan. 29, 2020, 4:37 a.m. UTC

1 39612U 14010A   20028.43879458  .00000076  00000-0  00000+0 0  9999
2 39612   0.0203 234.5401 0000040   2.7978 103.7997  1.00272696 21668
UTC
Height (km)
Latitude
Longitude
Inclination
Orbital Period
UTC large
Height (km)
Speed (km/s)
/
Latitude / Longitude
Inclination (degrees)
Orbital Period (minutes)
Azimuth
Elevation
Range (km)
Doppler Factor
iOS Compass Heading
iOS Angle

Next 30 passes for location: Hong Kong

Rise time Rise Azimuth (degrees) Set time Set Azimuth (degrees) Duration Max altitude (degrees)

No matching passes for this satellites